Overview Statistics Trail Chart Weather Telemetry Raw packets
 

This is the latest recevied weather packets stored in our database for station/object WA6OOO. If no packets are shown the sender has not sent any weather packets the latest 10 day(s).

<< 41 42 43 44 45 46 47 >>
Time Temp. Humidity Pressure Rain* Wind** Luminosity Snow
1788400519 20.56° C 80% 1017.3 hPa 0 mm - 19 W/m² -
1788400214 20.56° C 80% 1017.3 hPa 0 mm - 22 W/m² -
1788399908 21.11° C 79% 1017.4 hPa 0 mm - 26 W/m² -
1788399603 21.11° C 77% 1017.3 hPa 0 mm - 36 W/m² -
1788399302 21.67° C 76% 1017.3 hPa 0 mm - 42 W/m² -
1788399002 21.67° C 75% 1017.3 hPa 0 mm - 48 W/m² -
1788398701 22.22° C 74% 1017.4 hPa 0 mm - 54 W/m² -
1788398400 22.22° C 75% 1017.2 hPa 0 mm - 62 W/m² -
1788398095 22.22° C 74% 1017.5 hPa 0 mm - 70 W/m² -
1788397791 22.78° C 74% 1017.4 hPa 0 mm - 77 W/m² -
1788397491 23.33° C 71% 1017.5 hPa 0 mm - 86 W/m² -
1788397188 23.33° C 68% 1017.4 hPa 0 mm - 94 W/m² -
1788396884 23.89° C 67% 1017.5 hPa 0 mm - 105 W/m² -
1788396581 24.44° C 62% 1017.6 hPa 0 mm - 117 W/m² -
1788396275 24.44° C 54% 1017.5 hPa 0 mm - 130 W/m² -
1788395971 25° C 50% 1017.4 hPa 0 mm - 142 W/m² -
1788395670 25° C 49% 1017.7 hPa 0 mm - 153 W/m² -
1788395366 25° C 47% 1017.5 hPa 0 mm - 167 W/m² -
1788395061 25° C 50% 1017.5 hPa 0 mm - 181 W/m² -
1788394761 25° C 51% 1017.6 hPa 0 mm - 195 W/m² -
1788394461 25° C 54% 1017.4 hPa 0 mm - 210 W/m² -
1788394160 24.44° C 56% 1017.6 hPa 0 mm - 225 W/m² -
1788393855 25° C 54% 1017.6 hPa 0 mm - 238 W/m² -
1788393554 25° C 50% 1017.6 hPa 0 mm - 254 W/m² -
1788393249 24.44° C 50% 1017.5 hPa 0 mm - 268 W/m² -

* Rain latest hour (hover to see other rain measurements)
** Current wind speed in m/s (hover to see current wind gust speed)